• Em Portugal
  • Lista de países
  • Para 7 dias
  • Temperatura da água
  • Mapas de satélite
  • Mapa do tempo
  • Widgets de tempo
  • user-avatar
    Iniciar Sessão

    Previsão horária em Corcha

    Hoje, 22 Abril, Domingo

    Tempo Temperatura Precipitação Vento Pressão Humidade
    00:00 +8°C° 0 mm 0 m/s 669 mmHg 81%
    01:00 +8°C° 0 mm 0 m/s 668 mmHg 82%
    02:00 +8°C° 0 mm 0 m/s 668 mmHg 82%
    03:00 +7°C° 0 mm 0 m/s 668 mmHg 82%
    04:00 +7°C° 0 mm 0 m/s 668 mmHg 82%
    05:00 +9°C° 0 mm 0 m/s 668 mmHg 76%
    06:00 +10°C° 0 mm 0 m/s 669 mmHg 71%
    07:00 +13°C° 0 mm 1 m/s 669 mmHg 65%
    08:00 +14°C° 0 mm 1 m/s 669 mmHg 59%
    09:00 +16°C° 0 mm 1 m/s 670 mmHg 54%
    10:00 +17°C° 0 mm 2 m/s 670 mmHg 49%
    11:00 +18°C° 0 mm 2 m/s 670 mmHg 48%
    12:00 +19°C° 0 mm 2 m/s 670 mmHg 47%
    13:00 +19°C° 0 mm 2 m/s 670 mmHg 46%
    14:00 +19°C° 0 mm 2 m/s 670 mmHg 49%
    15:00 +18°C° 0 mm 2 m/s 669 mmHg 53%
    16:00 +18°C° 0 mm 2 m/s 669 mmHg 57%
    17:00 +16°C° 0,1 mm 2 m/s 668 mmHg 66%
    18:00 +14°C° 0,1 mm 2 m/s 668 mmHg 75%
    19:00 +12°C° 0,1 mm 1 m/s 667 mmHg 84%
    20:00 +11°C° 0 mm 1 m/s 667 mmHg 86%
    21:00 +11°C° 0 mm 1 m/s 668 mmHg 89%
    22:00 +10°C° 0 mm 1 m/s 668 mmHg 91%
    23:00 +10°C° 0 mm 1 m/s 668 mmHg 91%

    Amanhã, 23 Abril, Segunda-feira

    Tempo Temperatura Precipitação Vento Pressão Humidade
    00:00 +10°C° 0 mm 1 m/s 667 mmHg 91%
    01:00 +10°C° 0 mm 1 m/s 667 mmHg 91%
    02:00 +9°C° 0 mm 1 m/s 667 mmHg 90%
    03:00 +9°C° 0 mm 1 m/s 667 mmHg 89%
    04:00 +9°C° 0 mm 1 m/s 666 mmHg 87%
    05:00 +10°C° 0 mm 1 m/s 667 mmHg 82%
    06:00 +12°C° 0 mm 1 m/s 667 mmHg 76%
    07:00 +13°C° 0 mm 1 m/s 668 mmHg 70%
    08:00 +15°C° 0 mm 1 m/s 668 mmHg 63%
    09:00 +17°C° 0 mm 2 m/s 668 mmHg 56%
    10:00 +18°C° 0 mm 2 m/s 669 mmHg 48%
    11:00 +19°C° 0 mm 2 m/s 669 mmHg 46%
    12:00 +20°C° 0 mm 2 m/s 669 mmHg 44%
    13:00 +20°C° 0 mm 3 m/s 669 mmHg 42%
    14:00 +20°C° 0 mm 3 m/s 668 mmHg 45%
    15:00 +20°C° 0 mm 3 m/s 668 mmHg 48%
    16:00 +19°C° 0 mm 3 m/s 668 mmHg 50%
    17:00 +17°C° 0 mm 2 m/s 668 mmHg 59%
    18:00 +15°C° 0 mm 2 m/s 667 mmHg 67%
    19:00 +13°C° 0 mm 1 m/s 667 mmHg 76%
    20:00 +13°C° 0 mm 1 m/s 667 mmHg 77%
    21:00 +12°C° 0 mm 1 m/s 667 mmHg 79%
    22:00 +12°C° 0 mm 1 m/s 667 mmHg 80%
    23:00 +11°C° 0 mm 1 m/s 667 mmHg 80%

    Depois de amanhã, 24 Abril, Terça-feira

    Tempo Temperatura Precipitação Vento Pressão Humidade
    00:00 +11°C° 0 mm 1 m/s 667 mmHg 79%
    01:00 +11°C° 0 mm 1 m/s 667 mmHg 79%
    02:00 +11°C° 0 mm 1 m/s 667 mmHg 78%
    03:00 +11°C° 0 mm 1 m/s 667 mmHg 78%
    04:00 +10°C° 0 mm 1 m/s 667 mmHg 78%
    05:00 +12°C° 0 mm 1 m/s 668 mmHg 73%
    06:00 +14°C° 0 mm 1 m/s 668 mmHg 68%
    07:00 +14°C° 0 mm 0 m/s 669 mmHg 63%
    08:00 +18°C° 0 mm 1 m/s 669 mmHg 57%
    09:00 +20°C° 0 mm 1 m/s 670 mmHg 51%
    10:00 +22°C° 0 mm 1 m/s 671 mmHg 45%
    11:00 +21°C° 0 mm 2 m/s 671 mmHg 44%
    12:00 +21°C° 0 mm 2 m/s 670 mmHg 44%
    13:00 +23°C° 0 mm 2 m/s 670 mmHg 43%
    14:00 +21°C° 0,1 mm 2 m/s 670 mmHg 47%
    15:00 +20°C° 0,1 mm 2 m/s 670 mmHg 51%
    16:00 +20°C° 0,1 mm 3 m/s 669 mmHg 55%
    17:00 +18°C° 0,2 mm 2 m/s 669 mmHg 64%
    18:00 +16°C° 0,2 mm 2 m/s 669 mmHg 72%
    19:00 +14°C° 0,2 mm 1 m/s 668 mmHg 81%
    20:00 +13°C° 0 mm 1 m/s 668 mmHg 83%
    21:00 +13°C° 0 mm 1 m/s 669 mmHg 85%
    22:00 +12°C° 0 mm 1 m/s 669 mmHg 87%
    23:00 +12°C° 0 mm 1 m/s 668 mmHg 87%

    25 Abril, Quarta-feira

    Tempo Temperatura Precipitação Vento Pressão Humidade
    00:00 +11°C° 0 mm 1 m/s 668 mmHg 87%
    01:00 +11°C° 0 mm 1 m/s 668 mmHg 86%
    02:00 +11°C° 0 mm 1 m/s 668 mmHg 85%
    03:00 +11°C° 0 mm 1 m/s 668 mmHg 83%
    04:00 +10°C° 0 mm 1 m/s 668 mmHg 82%
    05:00 +12°C° 0 mm 1 m/s 668 mmHg 76%
    06:00 +13°C° 0 mm 1 m/s 669 mmHg 70%
    07:00 +15°C° 0 mm 1 m/s 669 mmHg 64%
    08:00 +18°C° 0 mm 1 m/s 670 mmHg 58%
    09:00 +19°C° 0 mm 1 m/s 670 mmHg 53%
    10:00 +21°C° 0 mm 1 m/s 671 mmHg 47%
    11:00 +21°C° 0,1 mm 1 m/s 671 mmHg 46%
    12:00 +21°C° 0,1 mm 2 m/s 670 mmHg 44%
    13:00 +21°C° 0,1 mm 2 m/s 670 mmHg 43%
    14:00 +21°C° 0,2 mm 2 m/s 670 mmHg 45%
    15:00 +20°C° 0,2 mm 2 m/s 669 mmHg 48%
    16:00 +20°C° 0,2 mm 2 m/s 669 mmHg 50%
    17:00 +18°C° 0,1 mm 2 m/s 668 mmHg 58%
    18:00 +16°C° 0,1 mm 1 m/s 668 mmHg 66%
    19:00 +14°C° 0,1 mm 1 m/s 668 mmHg 73%
    20:00 +13°C° 0,2 mm 1 m/s 668 mmHg 75%
    21:00 +12°C° 0,2 mm 1 m/s 667 mmHg 77%
    22:00 +12°C° 0,2 mm 1 m/s 667 mmHg 79%
    23:00 +11°C° 0 mm 1 m/s 667 mmHg 78%

    26 Abril, Quinta-feira

    Tempo Temperatura Precipitação Vento Pressão Humidade
    00:00 +11°C° 0 mm 1 m/s 667 mmHg 78%
    01:00 +11°C° 0 mm 1 m/s 666 mmHg 77%
    02:00 +10°C° 0 mm 1 m/s 666 mmHg 76%
    03:00 +9°C° 0 mm 0 m/s 666 mmHg 74%
    04:00 +9°C° 0 mm 0 m/s 666 mmHg 72%
    05:00 +10°C° 0 mm 0 m/s 666 mmHg 66%
    06:00 +12°C° 0 mm 0 m/s 667 mmHg 60%
    07:00 +13°C° 0 mm 0 m/s 667 mmHg 54%
    08:00 +16°C° 0 mm 1 m/s 667 mmHg 49%
    09:00 +19°C° 0 mm 1 m/s 668 mmHg 43%
    10:00 +21°C° 0 mm 1 m/s 668 mmHg 38%
    11:00 +21°C° 0 mm 1 m/s 668 mmHg 38%
    12:00 +21°C° 0 mm 2 m/s 668 mmHg 37%
    13:00 +21°C° 0 mm 2 m/s 667 mmHg 37%
    14:00 +21°C° 0 mm 2 m/s 667 mmHg 41%
    15:00 +20°C° 0 mm 2 m/s 666 mmHg 45%
    16:00 +19°C° 0 mm 2 m/s 666 mmHg 49%
    17:00 +17°C° 0,3 mm 2 m/s 666 mmHg 58%
    18:00 +16°C° 0,3 mm 1 m/s 665 mmHg 66%
    19:00 +14°C° 0,3 mm 1 m/s 665 mmHg 75%
    20:00 +13°C° 0 mm 1 m/s 665 mmHg 77%
    21:00 +13°C° 0 mm 1 m/s 665 mmHg 79%
    22:00 +12°C° 0 mm 1 m/s 665 mmHg 82%
    23:00 +12°C° 0 mm 1 m/s 664 mmHg 82%

    27 Abril, Sexta-feira

    Tempo Temperatura Precipitação Vento Pressão Humidade
    00:00 +11°C° 0 mm 0 m/s 664 mmHg 82%
    01:00 +10°C° 0 mm 0 m/s 664 mmHg 82%
    02:00 +10°C° 0 mm 0 m/s 664 mmHg 82%
    03:00 +11°C° 0 mm 1 m/s 664 mmHg 82%
    04:00 +11°C° 0 mm 1 m/s 663 mmHg 82%
    05:00 +12°C° 0 mm 1 m/s 664 mmHg 76%
    06:00 +14°C° 0 mm 1 m/s 664 mmHg 71%
    07:00 +15°C° 0 mm 1 m/s 665 mmHg 66%
    08:00 +18°C° 0 mm 1 m/s 665 mmHg 59%
    09:00 +20°C° 0 mm 1 m/s 666 mmHg 53%
    10:00 +21°C° 0 mm 1 m/s 666 mmHg 46%
    11:00 +21°C° 0 mm 2 m/s 666 mmHg 45%
    12:00 +21°C° 0 mm 2 m/s 666 mmHg 43%
    13:00 +23°C° 0 mm 2 m/s 665 mmHg 42%
    14:00 +21°C° 0 mm 2 m/s 665 mmHg 46%
    15:00 +21°C° 0 mm 2 m/s 665 mmHg 50%
    16:00 +20°C° 0 mm 2 m/s 664 mmHg 53%
    17:00 +19°C° 0,2 mm 1 m/s 664 mmHg 60%
    18:00 +16°C° 0,2 mm 1 m/s 664 mmHg 67%
    19:00 +13°C° 0,2 mm 0 m/s 664 mmHg 74%
    20:00 +14°C° 0,1 mm 1 m/s 664 mmHg 75%
    21:00 +14°C° 0,1 mm 1 m/s 664 mmHg 77%
    22:00 +13°C° 0,1 mm 1 m/s 664 mmHg 78%
    23:00 +13°C° 0 mm 1 m/s 664 mmHg 78%
    Mostrar mais